EW9007 Weather Reports


Display with metric or nautical units.
time (UTC)temp
F
wind
direction
speed
MPH
gust
MPH
rain 1hr
in
rain 24hr
in
rain mn
in
humidity
%
barometer
mb
20260504205503 77 350 9.0 19.0 0.00 0.00 0.00 26 1002.2
20260504205007 77 346 7.0 22.0 0.00 0.00 0.00 26 1002.1
20260504204517 78 334 7.0 22.0 0.00 0.00 0.00 26 1002.0
20260504204004 78 344 10.0 20.0 0.00 0.00 0.00 27 1002.0
20260504203504 78 9 11.0 17.0 0.00 0.00 0.00 26 1001.9
20260504203009 78 298 7.0 18.0 0.00 0.00 0.00 27 1002.0
20260504202508 78 348 8.0 18.0 0.00 0.00 0.00 27 1002.0
20260504202003 78 339 9.0 21.0 0.00 0.00 0.00 27 1002.0
20260504201503 78 331 9.0 21.0 0.00 0.00 0.00 25 1002.0
20260504201005 79 322 6.0 18.0 0.00 0.00 0.00 26 1002.1
20260504200503 79 302 7.0 20.0 0.00 0.00 0.00 25 1002.0
20260504200006 79 323 9.0 20.0 0.00 0.00 0.00 26 1001.9
20260504195503 79 315 7.0 15.0 0.00 0.00 0.00 25 1001.9
20260504195005 79 306 7.0 14.0 0.00 0.00 0.00 25 1001.9
20260504194508 79 294 4.0 12.0 0.00 0.00 0.00 26 1001.8
20260504194005 79 327 4.0 16.0 0.00 0.00 0.00 26 1001.9
20260504193507 79 352 5.0 21.0 0.00 0.00 0.00 25 1001.8
20260504193011 79 352 10.0 22.0 0.00 0.00 0.00 25 1001.8
20260504192503 80 342 8.0 22.0 0.00 0.00 0.00 24 1001.6
20260504192004 80 350 7.0 20.0 0.00 0.00 0.00 24 1001.6
20260504191504 80 5 8.0 20.0 0.00 0.00 0.00 23 1001.7
20260504191003 80 312 6.0 14.0 0.00 0.00 0.00 23 1001.6
20260504190503 80 290 2.0 17.0 0.00 0.00 0.00 23 1001.5
20260504190007 80 360 6.0 20.0 0.00 0.00 0.00 23 1001.6
20260504185504 80 330 7.0 21.0 0.00 0.00 0.00 23 1001.4
20260504185004 80 338 9.0 21.0 0.00 0.00 0.00 22 1001.3
20260504184513 80 320 2.0 14.0 0.00 0.00 0.00 23 1001.4
20260504184004 80 288 1.0 16.0 0.00 0.00 0.00 23 1001.4
20260504183504 81 352 7.0 16.0 0.00 0.00 0.00 22 1001.3
20260504183007 80 280 6.0 16.0 0.00 0.00 0.00 24 1001.2
20260504182506 80 312 2.0 17.0 0.00 0.00 0.00 22 1001.4
20260504182010 80 314 4.0 17.0 0.00 0.00 0.00 23 1001.3
20260504181503 80 265 2.0 13.0 0.00 0.00 0.00 25 1001.4
20260504181004 80 327 3.0 17.0 0.00 0.00 0.00 22 1001.5
20260504180504 80 334 4.0 17.0 0.00 0.00 0.00 22 1001.5
20260504180013 80 343 4.0 14.0 0.00 0.00 0.00 23 1001.7
20260504175503 79 321 3.0 25.0 0.00 0.00 0.00 22 1001.7
20260504175005 79 349 3.0 25.0 0.00 0.00 0.00 24 1001.7
20260504174507 79 300 1.0 19.0 0.00 0.00 0.00 24 1001.8
20260504174004 79 330 1.0 19.0 0.00 0.00 0.00 24 1001.8
20260504173504 79 302 7.0 20.0 0.00 0.00 0.00 23 1001.9
20260504173018 79 326 3.0 20.0 0.00 0.00 0.00 24 1001.8
20260504172508 79 261 1.0 11.0 0.00 0.00 0.00 24 1001.9
20260504172006 79 307 0.0 9.0 0.00 0.00 0.00 23 1002.0
20260504171514 78 339 0.0 8.0 0.00 0.00 0.00 24 1002.1
20260504171009 78 329 0.0 4.0 0.00 0.00 0.00 27 1002.2
20260504170504 77 278 0.0 3.0 0.00 0.00 0.00 28 1002.2
20260504151005 67 304 0.0 1.0 0.00 0.00 0.00 40 1002.4
20260504150506 67 269 0.0 0.0 0.00 0.00 0.00 41 1002.5
20260504141010 63 323 1.0 11.0 0.00 0.00 0.00 44 1002.6
20260504140506 62 300 5.0 12.0 0.00 0.00 0.00 44 1002.7
20260504130509 55 355 0.0 0.0 0.00 0.00 0.00 67 1002.5
20260504110502 50 162 0.0 0.0 0.00 0.00 0.00 62 1002.4
20260504100511 54 162 0.0 0.0 0.00 0.00 0.00 52 1002.5
20260504082008 53 169 0.0 0.0 0.00 0.00 0.00 57 1003.7
20260504081507 54 169 0.0 0.0 0.00 0.00 0.00 56 1003.8
20260504081006 54 169 0.0 0.0 0.00 0.00 0.00 56 1003.9
20260504080507 54 169 0.0 0.0 0.00 0.00 0.00 54 1003.9
20260504050509 58 169 0.0 0.0 0.00 0.00 0.00 50 1006.8
20260504045507 59 169 0.0 0.0 0.00 0.00 0.00 49 1006.8
20260504045004 59 169 0.0 0.0 0.00 0.00 0.00 48 1006.8
20260504044515 59 169 0.0 0.0 0.00 0.00 0.00 49 1006.9
20260504044003 59 182 0.0 0.0 0.00 0.00 0.00 49 1006.9
20260504043508 59 190 0.0 0.0 0.00 0.00 0.00 50 1007.0
20260504043023 59 198 0.0 0.0 0.00 0.00 0.00 49 1007.0
20260504042508 59 198 0.0 0.0 0.00 0.00 0.00 50 1007.1
20260504042008 59 198 0.0 0.0 0.00 0.00 0.00 52 1007.1
20260504041521 59 198 0.0 0.0 0.00 0.00 0.00 53 1007.2
20260504041008 59 198 0.0 0.0 0.00 0.00 0.00 53 1007.3
20260504040507 59 198 0.0 0.0 0.00 0.00 0.00 53 1007.4
20260504040007 59 198 0.0 0.0 0.00 0.00 0.00 52 1007.4
20260504035503 60 198 0.0 0.0 0.00 0.00 0.00 50 1007.4
20260504035003 60 198 0.0 0.0 0.00 0.00 0.00 49 1007.4
20260504034514 60 198 0.0 0.0 0.00 0.00 0.00 49 1007.4
20260504034002 61 198 0.0 0.0 0.00 0.00 0.00 47 1007.5
20260504033503 61 198 0.0 0.0 0.00 0.00 0.00 45 1007.5
20260504033015 61 198 0.0 0.0 0.00 0.00 0.00 45 1007.6
20260504032503 61 198 0.0 0.0 0.00 0.00 0.00 46 1007.6
20260504032004 61 198 0.0 0.0 0.00 0.00 0.00 43 1007.6
20260504031504 62 198 0.0 0.0 0.00 0.00 0.00 43 1007.6
20260504031003 62 198 0.0 0.0 0.00 0.00 0.00 42 1007.7
20260504030503 62 198 0.0 0.0 0.00 0.00 0.00 42 1007.7
20260504030005 63 198 0.0 0.0 0.00 0.00 0.00 42 1007.7
20260504025507 63 198 0.0 0.0 0.00 0.00 0.00 41 1007.7
20260504025004 64 198 0.0 0.0 0.00 0.00 0.00 40 1007.7
20260504024505 64 198 0.0 0.0 0.00 0.00 0.00 35 1007.7
20260504024008 64 198 0.0 0.0 0.00 0.00 0.00 36 1007.8
20260504023507 64 198 0.0 0.0 0.00 0.00 0.00 36 1007.8
20260504023004 64 198 0.0 0.0 0.00 0.00 0.00 36 1007.7
20260504022504 64 198 0.0 0.0 0.00 0.00 0.00 35 1007.8
20260504022003 65 198 0.0 0.0 0.00 0.00 0.00 36 1007.9
20260504021518 65 198 0.0 0.0 0.00 0.00 0.00 37 1007.9
20260504021002 66 198 0.0 0.0 0.00 0.00 0.00 36 1007.9
20260504020505 66 197 0.0 0.0 0.00 0.00 0.00 32 1008.0
20260504020004 66 197 0.0 0.0 0.00 0.00 0.00 32 1008.0
20260504015502 66 197 0.0 0.0 0.00 0.00 0.00 31 1008.0
20260504015004 66 197 0.0 0.0 0.00 0.00 0.00 31 1008.0
20260504014515 66 197 0.0 0.0 0.00 0.00 0.00 30 1008.0
20260504014008 67 197 0.0 0.0 0.00 0.00 0.00 30 1008.0
20260504013504 67 197 0.0 0.0 0.00 0.00 0.00 30 1007.9
20260504013009 67 197 0.0 0.0 0.00 0.00 0.00 31 1007.9
20260504012504 68 197 0.0 0.0 0.00 0.00 0.00 30 1007.9
20260504012006 68 197 0.0 0.0 0.00 0.00 0.00 30 1008.0
20260504011504 68 197 0.0 0.0 0.00 0.00 0.00 30 1008.1
20260504011003 69 197 0.0 0.0 0.00 0.00 0.00 30 1008.2
20260504010504 69 196 0.0 0.0 0.00 0.00 0.00 28 1008.1
20260504010003 69 196 0.0 0.0 0.00 0.00 0.00 28 1008.3
20260504005503 70 196 0.0 0.0 0.00 0.00 0.00 28 1008.3
20260504005004 70 196 0.0 0.0 0.00 0.00 0.00 28 1008.3
20260504004504 70 196 0.0 0.0 0.00 0.00 0.00 29 1008.4
20260504004004 70 198 0.0 0.0 0.00 0.00 0.00 28 1008.5
20260504003505 71 198 0.0 0.0 0.00 0.00 0.00 28 1008.5
20260504003007 71 199 0.0 0.0 0.00 0.00 0.00 27 1008.6
20260504002503 71 231 0.0 0.0 0.00 0.00 0.00 27 1008.5
20260504002005 71 231 0.0 0.0 0.00 0.00 0.00 27 1008.6
20260504001512 72 238 0.0 0.0 0.00 0.00 0.00 27 1008.6
20260504001007 72 196 0.0 0.0 0.00 0.00 0.00 27 1008.7
20260504000505 72 223 0.0 0.0 0.00 0.00 0.00 28 1008.7
20260504000012 72 198 0.0 0.0 0.00 0.00 0.00 29 1008.7
20260503235507 72 200 0.0 0.0 0.00 0.00 0.00 28 1008.7
20260503235004 72 284 0.0 0.0 0.00 0.00 0.00 28 1008.7
20260503234507 72 288 0.0 0.0 0.00 0.00 0.00 27 1008.7
20260503234003 72 207 0.0 0.0 0.00 0.00 0.00 29 1008.7
20260503233503 72 198 0.0 0.0 0.00 0.00 0.00 28 1008.7
20260503233003 72 190 0.0 0.0 0.00 0.00 0.00 27 1008.7
20260503232502 72 188 0.0 0.0 0.00 0.00 0.00 28 1008.8
20260503232004 72 238 0.0 0.0 0.00 0.00 0.00 27 1008.8
20260503231522 72 194 0.0 0.0 0.00 0.00 0.00 28 1008.9
20260503231003 71 199 0.0 0.0 0.00 0.00 0.00 28 1008.9
20260503230510 72 296 0.0 0.0 0.00 0.00 0.00 29 1008.9
20260503230014 72 296 0.0 0.0 0.00 0.00 0.00 30 1009.0
20260503225503 71 296 0.0 0.0 0.00 0.00 0.00 30 1009.0
20260503225007 71 296 0.0 0.0 0.00 0.00 0.00 29 1009.0
20260503224515 72 296 0.0 0.0 0.00 0.00 0.00 28 1009.0
20260503224007 72 296 0.0 0.0 0.00 0.00 0.00 29 1008.9
20260503223501 72 279 0.0 0.0 0.00 0.00 0.00 28 1008.9
20260503223004 73 279 0.0 0.0 0.00 0.00 0.00 28 1008.9
20260503222503 73 348 0.0 1.0 0.00 0.00 0.00 26 1009.0
20260503222004 73 360 0.0 1.0 0.00 0.00 0.00 26 1009.2
20260503221507 72 360 0.0 1.0 0.00 0.00 0.00 26 1009.2
20260503221006 72 303 0.0 0.0 0.00 0.00 0.00 29 1009.2
20260503220503 72 303 0.0 0.0 0.00 0.00 0.00 27 1009.2
20260503220007 71 303 0.0 0.0 0.00 0.00 0.00 27 1009.2
20260503215505 71 303 0.0 0.0 0.00 0.00 0.00 27 1009.3
20260503215011 72 303 0.0 0.0 0.00 0.00 0.00 26 1009.3
20260503214518 72 303 0.0 0.0 0.00 0.00 0.00 27 1009.5
20260503214004 71 302 0.0 0.0 0.00 0.00 0.00 28 1009.7
20260503213509 71 275 0.0 0.0 0.00 0.00 0.00 27 1009.7
20260503213019 71 102 0.0 0.0 0.00 0.00 0.00 27 1009.7
20260503212504 72 102 0.0 0.0 0.00 0.00 0.00 27 1009.7
20260503212005 72 102 0.0 0.0 0.00 0.00 0.00 26 1009.7
20260503211503 72 13 0.0 0.0 0.00 0.00 0.00 25 1009.9
20260503211004 72 339 0.0 4.0 0.00 0.00 0.00 27 1010.0
20260503210505 71 339 0.0 8.0 0.00 0.00 0.00 26 1010.0
20260503210017 72 280 0.0 8.0 0.00 0.00 0.00 27 1010.0